FW8034 Weather Reports


time (UTC)temp
C
wind
direction
speed
KPH
gust
KPH
rain 1hr
cm
rain 24hr
cm
rain mn
cm
humidity
%
barometer
mb
20260507134755 6 273 4.8 4.8 0.00 0.15 0.15 92 1049.6
20260507134252 6 283 4.8 4.8 0.00 0.15 0.15 94 1049.7
20260507133747 6 276 4.8 4.8 0.00 0.15 0.15 94 1049.7
20260507133244 6 288 1.6 3.2 0.00 0.15 0.15 95 1049.5
20260507132742 6 291 0.0 0.0 0.00 0.15 0.15 95 1049.1
20260507132238 6 307 0.0 0.0 0.00 0.15 0.15 94 1049.1
20260507131735 6 292 0.0 3.2 0.00 0.15 0.15 94 1049.2
20260507131233 6 298 0.0 0.0 0.18 0.15 0.15 93 1048.9
20260507130729 6 301 0.0 0.0 0.18 0.15 0.15 93 1048.5
20260507130227 6 280 0.0 0.0 0.30 0.13 0.13 91 1048.6
20260507125725 6 296 0.0 1.6 0.30 0.13 0.13 90 1048.8
20260507125223 6 266 4.8 4.8 0.13 0.08 0.08 88 1049.0
20260507124719 6 307 0.0 4.8 0.30 0.08 0.08 86 1048.7
20260507124216 7 263 4.8 9.7 0.36 0.05 0.05 83 1048.9
20260507123714 7 260 4.8 11.3 0.00 0.00 0.00 74 1048.7
20260507123212 7 276 1.6 11.3 0.00 0.00 0.00 71 1048.6
20260507122707 7 250 1.6 3.2 0.00 0.00 0.00 71 1048.2
20260507122203 7 275 3.2 8.0 0.00 0.00 0.00 70 1048.3
20260507121659 7 287 1.6 3.2 0.00 0.00 0.00 70 1048.1
20260507121155 7 257 0.0 1.6 0.00 0.00 0.00 71 1047.9
20260507120651 7 238 1.6 3.2 0.00 0.00 0.00 71 1048.1
20260507120148 6 277 1.6 1.6 0.00 0.00 0.00 71 1048.1
20260507115644 6 285 1.6 8.0 0.00 0.00 0.00 71 1048.0
20260507115140 6 289 1.6 3.2 0.00 0.00 0.00 71 1048.0
20260507114636 6 271 0.0 3.2 0.00 0.00 0.00 72 1048.1
20260507114133 5 273 1.6 1.6 0.00 0.00 0.00 71 1048.0
20260507113631 5 291 0.0 3.2 0.00 0.00 0.00 71 1047.9
20260507113127 5 271 1.6 1.6 0.00 0.00 0.00 71 1048.0
20260507112626 5 268 1.6 1.6 0.00 0.00 0.00 71 1048.0
20260507112122 5 275 1.6 3.2 0.00 0.00 0.00 71 1048.0
20260507111619 5 280 0.0 0.0 0.00 0.00 0.00 73 1048.1
20260507111116 5 287 0.0 0.0 0.00 0.00 0.00 73 1048.0
20260507110612 5 297 0.0 0.0 0.00 0.00 0.00 73 1047.9
20260507110108 5 289 0.0 0.0 0.00 0.00 0.00 72 1047.9
20260507105606 5 291 0.0 0.0 0.00 0.00 0.00 71 1048.0
20260507105101 5 290 0.0 0.0 0.00 0.00 0.00 73 1048.1
20260507104559 5 284 0.0 0.0 0.00 0.00 0.00 71 1048.2
20260507104055 5 296 0.0 0.0 0.00 0.00 0.00 72 1048.2
20260507103551 5 299 0.0 0.0 0.00 0.00 0.00 72 1048.2
20260507103049 5 291 0.0 0.0 0.00 0.00 0.00 72 1048.2
20260507102545 5 286 0.0 0.0 0.00 0.00 0.00 73 1048.2
20260507102041 4 277 0.0 1.6 0.00 0.00 0.00 71 1048.3
20260507101536 4 259 0.0 0.0 0.00 0.00 0.00 75 1048.2
20260507101033 4 288 0.0 0.0 0.00 0.00 0.00 76 1048.5
20260507100531 4 302 0.0 0.0 0.00 0.00 0.00 75 1048.6
20260507100028 4 295 0.0 0.0 0.00 0.00 0.00 74 1048.7
20260507095526 5 299 0.0 0.0 0.00 0.00 0.00 74 1048.6
20260507095023 5 284 0.0 0.0 0.00 0.00 0.00 68 1048.5
20260507094519 5 295 0.0 0.0 0.00 0.00 0.00 67 1048.7
20260507094016 5 309 0.0 0.0 0.00 0.00 0.00 65 1048.5
20260507093513 6 301 0.0 0.0 0.00 0.00 0.00 65 1048.8
20260507093012 6 292 0.0 0.0 0.00 0.00 0.00 65 1049.0
20260507092508 6 296 0.0 0.0 0.00 0.00 0.00 64 1049.0
20260507092005 6 283 0.0 1.6 0.00 0.00 0.00 66 1049.0
20260507091501 6 309 0.0 0.0 0.00 0.00 0.00 68 1049.2
20260507090957 6 310 0.0 0.0 0.00 0.00 0.00 65 1049.3
20260507090453 6 318 0.0 0.0 0.00 0.00 0.00 67 1049.5
20260507085950 6 293 0.0 0.0 0.00 0.00 0.00 66 1049.7
20260507085447 6 299 0.0 0.0 0.00 0.00 0.00 65 1049.7
20260507084944 6 293 0.0 0.0 0.00 0.00 0.00 69 1049.5
20260507084441 6 299 0.0 0.0 0.00 0.00 0.00 65 1049.4
20260507083938 6 295 0.0 0.0 0.00 0.00 0.00 66 1049.5
20260507083434 6 296 0.0 0.0 0.00 0.00 0.00 66 1049.7
20260507082931 6 301 0.0 0.0 0.00 0.00 0.00 68 1049.9
20260507082427 5 295 0.0 0.0 0.00 0.00 0.00 68 1049.8
20260507081924 5 297 0.0 0.0 0.00 0.00 0.00 68 1049.7
20260507081420 5 291 0.0 1.6 0.00 0.00 0.00 69 1049.6
20260507080917 5 311 0.0 0.0 0.00 0.00 0.00 65 1049.9
20260507080413 5 304 0.0 0.0 0.00 0.00 0.00 67 1049.9
20260507075908 5 303 0.0 0.0 0.00 0.00 0.00 69 1050.1
20260507075404 5 296 0.0 0.0 0.00 0.00 0.00 67 1050.0
20260507074901 5 299 0.0 0.0 0.00 0.00 0.00 67 1050.0
20260507074358 5 309 0.0 0.0 0.00 0.00 0.00 67 1050.1
20260507073856 5 304 0.0 0.0 0.00 0.00 0.00 70 1050.1
20260507073352 5 296 0.0 0.0 0.00 0.00 0.00 69 1050.3
20260507072849 5 304 0.0 0.0 0.00 0.00 0.00 68 1050.2
20260507072347 5 297 0.0 0.0 0.00 0.00 0.00 69 1050.4
20260507071844 4 299 0.0 0.0 0.00 0.00 0.00 70 1050.4
20260507071341 3 315 0.0 0.0 0.00 0.00 0.00 71 1050.3
20260507070837 3 301 0.0 0.0 0.00 0.00 0.00 72 1050.6
20260507070335 3 303 0.0 0.0 0.00 0.00 0.00 72 1050.5
20260507065831 3 298 0.0 0.0 0.00 0.00 0.00 74 1050.7
20260507065328 3 297 0.0 0.0 0.00 0.00 0.00 76 1050.7
20260507064825 3 300 0.0 0.0 0.00 0.00 0.00 77 1050.7
20260507064324 3 306 0.0 0.0 0.00 0.00 0.00 77 1050.7
20260507063821 3 301 0.0 0.0 0.00 0.00 0.00 76 1050.8
20260507063318 3 301 0.0 0.0 0.00 0.00 0.00 79 1050.7
20260507062814 3 302 0.0 0.0 0.00 0.00 0.00 79 1050.8
20260507062312 3 305 0.0 0.0 0.00 0.00 0.00 81 1050.8
20260507061810 3 303 0.0 0.0 0.00 0.00 0.00 81 1050.7
20260507061307 3 308 0.0 0.0 0.00 0.00 0.00 84 1050.9
20260507060806 2 308 0.0 0.0 0.00 0.00 0.00 84 1051.3
20260507060302 2 301 0.0 0.0 0.00 0.00 0.00 83 1050.8
20260507055758 2 301 0.0 0.0 0.00 0.00 0.00 82 1051.0
20260507055253 2 302 0.0 0.0 0.00 0.00 0.00 82 1051.0
20260507054750 2 301 0.0 0.0 0.00 0.00 0.00 80 1051.3
20260507054247 2 300 0.0 0.0 0.00 0.00 0.00 81 1051.3
20260507053744 2 300 0.0 0.0 0.00 0.00 0.00 82 1051.0
20260507053242 2 298 0.0 0.0 0.00 0.00 0.00 83 1051.2
20260507052741 1 298 0.0 0.0 0.00 0.00 0.00 85 1051.2
20260507052236 1 296 0.0 0.0 0.00 0.00 0.00 87 1051.5
20260507051735 1 299 0.0 0.0 0.00 0.00 0.00 89 1051.4
20260507051231 1 299 0.0 0.0 0.00 0.00 0.00 90 1051.4
20260507050728 1 296 0.0 0.0 0.00 0.00 0.00 90 1051.2
20260507050225 2 299 0.0 0.0 0.00 0.00 0.00 89 1051.4
20260507045722 2 299 0.0 0.0 0.00 0.00 0.00 89 1051.2
20260507045218 2 299 0.0 0.0 0.00 0.00 0.00 88 1051.4
20260507044715 1 307 0.0 0.0 0.00 0.00 0.00 87 1051.4
20260507044211 1 300 0.0 0.0 0.00 0.00 0.00 87 1051.6
20260507043708 2 300 0.0 0.0 0.00 0.00 0.00 87 1051.6
20260507043205 2 300 0.0 0.0 0.00 0.00 0.00 87 1051.6
20260507042701 2 300 0.0 0.0 0.00 0.00 0.00 87 1051.4
20260507042156 2 300 0.0 0.0 0.00 0.00 0.00 86 1051.7
20260507041654 2 303 0.0 0.0 0.00 0.00 0.00 86 1051.6
20260507041150 2 299 0.0 0.0 0.00 0.00 0.00 87 1051.7
20260507040647 2 301 0.0 0.0 0.00 0.00 0.00 88 1051.7
20260507040143 2 299 0.0 0.0 0.00 0.00 0.00 84 1051.8
20260507035639 2 299 0.0 0.0 0.00 0.00 0.00 84 1051.8
20260507035135 3 299 0.0 0.0 0.00 0.00 0.00 83 1051.7
20260507034632 3 300 0.0 0.0 0.00 0.00 0.00 84 1051.9
20260507034130 3 299 0.0 0.0 0.00 0.00 0.00 85 1051.9
20260507033628 3 298 0.0 0.0 0.00 0.00 0.00 83 1051.9
20260507033125 3 298 0.0 0.0 0.00 0.00 0.00 82 1051.7
20260507032623 3 299 0.0 0.0 0.00 0.00 0.00 80 1051.9
20260507032118 3 298 0.0 0.0 0.00 0.00 0.00 80 1052.0
20260507031615 4 298 0.0 0.0 0.00 0.00 0.00 77 1052.0
20260507031112 3 300 0.0 0.0 0.00 0.00 0.00 77 1052.0
20260507030608 3 301 0.0 0.0 0.00 0.00 0.00 80 1051.9
20260507030107 3 299 0.0 0.0 0.00 0.00 0.00 78 1052.1
20260507025603 4 299 0.0 0.0 0.00 0.00 0.00 77 1052.1
20260507025100 4 299 0.0 0.0 0.00 0.00 0.00 79 1052.1
20260507024558 5 299 0.0 0.0 0.00 0.00 0.00 75 1052.0
20260507024050 5 299 0.0 0.0 0.00 0.00 0.00 71 1052.1
20260507023545 5 300 0.0 0.0 0.00 0.00 0.00 75 1051.9
20260507023043 4 301 0.0 0.0 0.00 0.00 0.00 76 1052.1
20260507022540 4 299 0.0 0.0 0.00 0.00 0.00 76 1052.1
20260507022035 5 298 0.0 0.0 0.00 0.00 0.00 76 1051.9
20260507021531 5 298 0.0 0.0 0.00 0.00 0.00 75 1051.9
20260507021028 5 299 0.0 0.0 0.00 0.00 0.00 72 1051.8
20260507020526 6 299 0.0 0.0 0.00 0.00 0.00 66 1051.9
20260507020022 6 300 0.0 0.0 0.00 0.00 0.00 62 1051.9
20260507015521 6 302 0.0 0.0 0.00 0.00 0.00 63 1051.9
20260507015018 7 299 0.0 0.0 0.00 0.00 0.00 63 1051.9
20260507014514 7 299 0.0 0.0 0.00 0.00 0.00 56 1051.8
20260507014010 7 299 0.0 0.0 0.00 0.00 0.00 50 1051.8
20260507013507 8 299 0.0 0.0 0.00 0.00 0.00 50 1051.9
20260507013004 8 303 0.0 0.0 0.00 0.00 0.00 46 1051.8
20260507012500 10 295 0.0 0.0 0.00 0.00 0.00 50 1051.9
20260507011951 10 300 0.0 0.0 0.00 0.00 0.00 43 1051.9
20260507011448 10 295 0.0 0.0 0.00 0.00 0.00 41 1051.7
20260507010943 11 280 0.0 1.6 0.00 0.00 0.00 39 1051.8
20260507010438 11 278 1.6 3.2 0.00 0.00 0.00 35 1051.6
20260507005935 11 275 1.6 4.8 0.00 0.00 0.00 34 1051.8
20260507005433 12 271 3.2 3.2 0.00 0.00 0.00 34 1051.7
20260507004930 12 271 4.8 4.8 0.00 0.00 0.00 34 1051.6
20260507004426 12 310 0.0 1.6 0.00 0.00 0.00 35 1051.7
20260507003924 12 276 1.6 4.8 0.00 0.00 0.00 33 1051.8
20260507003418 12 282 4.8 8.0 0.00 0.00 0.00 33 1051.8
20260507002913 12 251 4.8 4.8 0.00 0.00 0.00 33 1051.8
20260507002410 12 290 4.8 4.8 0.00 0.00 0.00 33 1051.9
20260507001907 12 276 0.0 8.0 0.00 0.00 0.00 33 1052.1
20260507001404 13 294 4.8 8.0 0.00 0.00 0.00 33 1051.8
20260507000856 13 301 3.2 8.0 0.00 0.00 0.00 32 1052.1
20260507000351 13 266 3.2 9.7 0.00 0.00 0.00 32 1052.0
20260506235847 13 234 6.4 14.5 0.00 0.00 0.00 31 1052.2
20260506235344 13 283 4.8 11.3 0.00 0.00 0.00 32 1052.0
20260506234840 13 266 9.7 14.5 0.00 0.00 0.00 31 1052.0
20260506234338 13 264 12.9 16.1 0.00 0.00 0.00 31 1052.2
20260506233835 13 274 6.4 16.1 0.00 0.00 0.00 31 1052.1
20260506233331 13 338 9.7 12.9 0.00 0.00 0.00 32 1052.1
20260506232828 13 278 6.4 12.9 0.00 0.00 0.00 31 1052.0
20260506232324 13 294 8.0 17.7 0.00 0.00 0.00 31 1052.1
20260506231820 13 271 12.9 14.5 0.00 0.00 0.00 32 1052.2
20260506231318 13 289 0.0 9.7 0.00 0.00 0.00 32 1052.3
20260506230815 12 258 8.0 16.1 0.00 0.00 0.00 32 1052.4
20260506230312 12 255 12.9 16.1 0.00 0.00 0.00 33 1052.3
20260506225808 13 254 3.2 16.1 0.00 0.00 0.00 33 1052.6
20260506225306 13 294 6.4 16.1 0.00 0.00 0.00 34 1052.2
20260506224802 12 273 8.0 20.9 0.00 0.00 0.00 34 1052.5
20260506224259 13 294 9.7 17.7 0.00 0.00 0.00 32 1052.4
20260506223755 13 274 12.9 16.1 0.00 0.00 0.00 32 1052.4
20260506223251 13 283 9.7 16.1 0.00 0.00 0.00 33 1052.3
20260506222748 13 322 6.4 11.3 0.00 0.00 0.00 32 1052.4
20260506222244 13 273 4.8 14.5 0.00 0.00 0.00 33 1052.3
20260506221742 14 267 4.8 9.7 0.00 0.00 0.00 32 1052.4
20260506221240 13 316 6.4 9.7 0.00 0.00 0.00 32 1052.3
20260506220731 13 274 8.0 14.5 0.00 0.00 0.00 34 1052.4
20260506220231 13 298 14.5 27.4 0.00 0.00 0.00 33 1052.5
20260506215723 13 264 12.9 16.1 0.00 0.00 0.00 31 1052.6
20260506215219 13 269 14.5 25.7 0.00 0.00 0.00 33 1052.6
20260506214715 13 235 6.4 14.5 0.00 0.00 0.00 35 1052.7
20260506214213 13 262 8.0 16.1 0.00 0.00 0.00 34 1052.6
20260506213711 13 275 20.9 27.4 0.00 0.00 0.00 32 1052.5
20260506213208 14 236 17.7 27.4 0.00 0.00 0.00 32 1052.4
20260506212705 13 78 1.6 11.3 0.00 0.00 0.00 33 1052.4
20260506212200 14 276 16.1 20.9 0.00 0.00 0.00 32 1052.6
20260506211655 13 319 12.9 16.1 0.00 0.00 0.00 34 1052.6
20260506211152 12 286 8.0 24.1 0.00 0.00 0.00 34 1052.9
20260506210649 13 297 12.9 20.9 0.00 0.00 0.00 33 1052.6
20260506210146 12 269 14.5 22.5 0.00 0.00 0.00 34 1052.9
20260506205643 13 252 8.0 16.1 0.00 0.00 0.00 33 1053.0
20260506205138 13 297 9.7 20.9 0.00 0.00 0.00 34 1053.0
20260506204636 13 305 9.7 20.9 0.00 0.00 0.00 32 1053.0
20260506204133 14 250 6.4 16.1 0.00 0.00 0.00 33 1052.9
20260506203631 13 258 8.0 12.9 0.00 0.00 0.00 36 1053.0
20260506203127 13 266 9.7 14.5 0.00 0.00 0.00 34 1053.1
20260506202626 13 256 11.3 20.9 0.00 0.00 0.00 36 1053.1
20260506202122 13 259 8.0 17.7 0.00 0.00 0.00 33 1052.7
20260506201619 13 261 9.7 16.1 0.00 0.00 0.00 33 1053.0
20260506201115 13 264 9.7 24.1 0.00 0.00 0.00 34 1053.1
20260506200612 13 277 8.0 25.7 0.00 0.00 0.00 35 1053.1
20260506200109 13 251 9.7 12.9 0.00 0.00 0.00 33 1053.1
20260506195605 13 295 16.1 25.7 0.00 0.00 0.00 33 1053.3
20260506195102 13 278 8.0 14.5 0.00 0.00 0.00 37 1053.3
20260506194600 13 264 12.9 20.9 0.00 0.00 0.00 37 1053.2
20260506194055 13 328 11.3 20.9 0.00 0.00 0.00 37 1053.4
20260506193553 13 283 11.3 14.5 0.00 0.00 0.00 36 1053.2
20260506193050 13 245 4.8 17.7 0.00 0.00 0.00 37 1053.2
20260506192547 13 291 9.7 17.7 0.00 0.00 0.00 39 1053.3
20260506192043 12 237 14.5 20.9 0.00 0.00 0.00 35 1053.4
20260506191539 12 284 8.0 17.7 0.00 0.00 0.00 37 1053.4
20260506191035 12 140 4.8 11.3 0.00 0.00 0.00 37 1053.6
20260506190532 11 257 3.2 14.5 0.00 0.00 0.00 39 1053.4
20260506190029 12 311 8.0 12.9 0.00 0.00 0.00 35 1053.5
20260506185527 12 283 6.4 14.5 0.00 0.00 0.00 39 1053.5
20260506185023 11 284 4.8 22.5 0.00 0.00 0.00 37 1053.7
20260506184521 12 308 9.7 14.5 0.00 0.00 0.00 37 1053.7
20260506184018 12 274 8.0 14.5 0.00 0.00 0.00 38 1053.5
20260506183513 12 267 11.3 16.1 0.00 0.00 0.00 36 1053.7
20260506183010 12 237 11.3 20.9 0.00 0.00 0.00 38 1053.7
20260506182508 12 255 8.0 16.1 0.00 0.00 0.00 37 1053.8
20260506182005 11 261 8.0 20.9 0.00 0.00 0.00 38 1053.8
20260506181503 11 273 6.4 17.7 0.00 0.00 0.00 37 1053.8
20260506180959 11 259 12.9 16.1 0.00 0.00 0.00 40 1053.8
20260506180455 11 280 16.1 22.5 0.00 0.00 0.00 37 1053.9
20260506175947 11 229 8.0 14.5 0.00 0.00 0.00 38 1054.1
20260506175443 11 6 4.8 16.1 0.00 0.00 0.00 39 1054.0
20260506174940 11 264 11.3 16.1 0.00 0.00 0.00 40 1054.2
20260506174438 11 275 8.0 12.9 0.00 0.00 0.00 41 1054.2
20260506173935 11 282 8.0 14.5 0.00 0.00 0.00 41 1054.2
20260506173432 11 260 12.9 14.5 0.00 0.00 0.00 40 1054.3
20260506172929 10 296 4.8 11.3 0.00 0.00 0.00 42 1054.4
20260506172426 10 269 8.0 11.3 0.00 0.00 0.00 40 1054.5
20260506171923 10 294 6.4 14.5 0.00 0.00 0.00 42 1054.4
20260506171420 10 323 9.7 14.5 0.00 0.00 0.00 41 1054.3
20260506170917 10 273 8.0 12.9 0.00 0.00 0.00 41 1054.2
20260506170413 10 315 4.8 11.3 0.00 0.00 0.00 42 1054.4
20260506165912 10 294 6.4 14.5 0.00 0.00 0.00 40 1054.4
20260506165410 10 275 6.4 12.9 0.00 0.00 0.00 43 1054.3
20260506164906 10 247 9.7 16.1 0.00 0.00 0.00 42 1054.2
20260506164403 10 282 11.3 14.5 0.00 0.00 0.00 40 1054.5
20260506163901 10 283 9.7 14.5 0.00 0.00 0.00 40 1054.3
20260506163356 10 305 8.0 9.7 0.00 0.00 0.00 41 1054.3
20260506162850 10 267 8.0 11.3 0.00 0.00 0.00 41 1054.3
20260506162349 10 264 8.0 16.1 0.00 0.00 0.00 40 1054.3
20260506161846 10 271 16.1 20.9 0.00 0.00 0.00 40 1054.3
20260506161343 10 267 8.0 14.5 0.00 0.00 0.00 41 1054.4
20260506160836 10 254 4.8 11.3 0.00 0.00 0.00 44 1054.2
20260506160332 10 16 1.6 11.3 0.00 0.00 0.00 44 1054.2
20260506155831 10 278 9.7 14.5 0.00 0.00 0.00 42 1054.4
20260506155327 11 251 6.4 17.7 0.00 0.00 0.00 40 1054.4
20260506153444 10 288 6.4 17.7 0.00 0.00 0.00 44 1054.3
20260506152942 10 273 4.8 12.9 0.00 0.00 0.00 46 1054.2
20260506152438 10 276 8.0 20.9 0.00 0.00 0.00 45 1054.2
20260506151937 10 254 12.9 20.9 0.00 0.00 0.00 44 1054.2
20260506151434 10 88 3.2 9.7 0.00 0.00 0.00 44 1054.0
20260506150932 10 284 14.5 20.9 0.00 0.00 0.00 44 1054.2
20260506150427 10 298 9.7 14.5 0.00 0.00 0.00 45 1054.1
20260506145924 10 266 3.2 14.5 0.00 0.00 0.00 46 1054.2
20260506145421 10 285 8.0 11.3 0.00 0.00 0.00 45 1054.2
20260506144918 9 295 0.0 3.2 0.00 0.00 0.00 51 1054.1
20260506144414 10 269 6.4 12.9 0.00 0.00 0.00 46 1054.0
20260506143914 8 355 0.0 4.8 0.00 0.00 0.00 48 1054.1
20260506143410 8 303 1.6 9.7 0.00 0.00 0.00 48 1054.0
20260506142908 8 318 1.6 8.0 0.00 0.00 0.00 47 1054.0
20260506142406 9 326 0.0 3.2 0.00 0.00 0.00 48 1054.2
20260506141904 9 304 3.2 3.2 0.00 0.00 0.00 47 1054.2
20260506141401 8 283 3.2 8.0 0.00 0.00 0.00 50 1054.0
20260506140859 10 240 6.4 8.0 0.00 0.00 0.00 47 1053.8
20260506140356 8 268 1.6 3.2 0.00 0.00 0.00 49 1053.8
20260506135853 8 266 1.6 8.0 0.00 0.00 0.00 54 1053.9
20260506135350 8 246 1.6 4.8 0.00 0.00 0.00 53 1053.8